Baton Rouge, LA

3:06 AM CDT on March 29, 2017 (GMT -0500)
Baton Rouge Metro-Ryan

Weather History for KBTR - May, 2013

Change the Weather History Date:

Monday, May 6, 2013

  Actual Average Record
Temperature  
Mean Temperature 62 °F 73 °F  
Max Temperature 76 °F 84 °F 94 °F (1952)
Min Temperature 47 °F 63 °F 46 °F (1945)
Degree Days  
Heating Degree Days 3 0  
Month to date heating degree days 30 0  
Since 1 July heating degree days 1551 1553  
Cooling Degree Days 0 8  
Month to date cooling degree days 15 47  
Year to date cooling degree days 172 278  
Growing Degree Days 10 (Base 50)    
Moisture  
Dew Point 48 °F    
Average Humidity 66    
Maximum Humidity 93    
Minimum Humidity 38    
Precipitation  
Precipitation 0.00 in 0.15 in 2.02 in (1960)
Month to date precipitation 0.08 0.88  
Year to date precipitation 31.23 20.51  
Snow  
Snow 0.00 in - - ()
Month to date snowfall 0.0  
Since 1 July snowfall 0.0  
Snow Depth 0.00 in    
Sea Level Pressure  
Sea Level Pressure 30.01 in    
Wind  
Wind Speed 5 mph (WNW)    
Max Wind Speed 17 mph    
Max Gust Speed 22 mph    
Visibility 10 miles    
Events      
T = Trace of Precipitation, MM = Missing Value Source: NWS Daily Summary

Daily Weather History Graph

Daily Weather History Graph

Search for Another Location

Airport or City:

Trip Planner

Search our weather history database for the weather conditions in past years. The results will help you decide how hot, cold, wet, or windy it might be!

Date:

Astronomy

May. 06, 2013 Rise Set
Actual Time 6:16 AM CDT 7:46 PM CDT
Civil Twilight 5:50 AM CDT 8:12 PM CDT
Nautical Twilight 5:19 AM CDT 8:43 PM CDT
Astronomical Twilight 4:47 AM CDT 9:15 PM CDT
Moon 4:05 AM CDT (5/6) 4:57 PM CDT (5/6)
Length of Visible Light 14h 21m
Length of Day
13h 29m
Waning Crescent, 11% of the Moon is Illuminated
May 6
Waning Crescent
May 9
New
May 17
First Quarter
May 24
Full
May 31
Last Quarter

Hourly Weather History & Observations

Time (CDT) Temp. Dew Point Humidity Pressure Visibility Wind Dir Wind Speed Gust Speed Precip Events Conditions
12:53 AM 48.0 °F 45.0 °F 89% 30.04 in 10.0 mi Calm Calm - N/A   Clear
1:53 AM 48.0 °F 45.0 °F 89% 30.03 in 10.0 mi Calm Calm - N/A   Clear
2:53 AM 46.9 °F 45.0 °F 93% 30.02 in 10.0 mi Calm Calm - N/A   Clear
3:53 AM 46.9 °F 45.0 °F 93% 30.02 in 10.0 mi Calm Calm - N/A   Clear
4:53 AM 48.0 °F 44.1 °F 86% 30.02 in 10.0 mi Calm Calm - N/A   Clear
5:53 AM 48.0 °F 44.1 °F 86% 30.03 in 10.0 mi West 5.8 mph - N/A   Clear
6:53 AM 50.0 °F 46.0 °F 86% 30.04 in 10.0 mi West 4.6 mph - N/A   Clear
7:53 AM 55.9 °F 48.0 °F 75% 30.06 in 10.0 mi West 9.2 mph - N/A   Clear
8:53 AM 60.1 °F 46.0 °F 60% 30.07 in 10.0 mi North - - N/A   Clear
9:53 AM 64.0 °F 46.9 °F 54% 30.06 in 10.0 mi West 11.5 mph - N/A   Clear
10:53 AM 66.0 °F 46.9 °F 50% 30.06 in 10.0 mi WNW 8.1 mph - N/A   Clear
11:53 AM 68.0 °F 46.9 °F 47% 30.05 in 10.0 mi WNW 8.1 mph - N/A   Clear
12:53 PM 70.0 °F 46.9 °F 44% 30.02 in 10.0 mi West 12.7 mph 19.6 mph N/A   Clear
1:53 PM 73.0 °F 46.9 °F 39% 30.00 in 10.0 mi West 12.7 mph 18.4 mph N/A   Clear
2:53 PM 73.9 °F 48.9 °F 41% 29.99 in 10.0 mi West 8.1 mph 18.4 mph N/A   Clear
3:53 PM 75.0 °F 50.0 °F 41% 29.96 in 10.0 mi WNW 10.4 mph - N/A   Clear
4:53 PM 75.0 °F 50.0 °F 41% 29.95 in 10.0 mi WNW 12.7 mph 18.4 mph N/A   Clear
5:53 PM 75.0 °F 50.0 °F 41% 29.94 in 10.0 mi WNW 11.5 mph 19.6 mph N/A   Clear
6:53 PM 73.0 °F 50.0 °F 44% 29.95 in 10.0 mi NW 4.6 mph - N/A   Clear
7:53 PM 68.0 °F 53.1 °F 59% 29.96 in 10.0 mi Calm Calm - N/A   Clear
8:53 PM 64.9 °F 55.0 °F 70% 29.97 in 10.0 mi Calm Calm - N/A   Mostly Cloudy
9:53 PM 62.1 °F 55.0 °F 78% 29.99 in 10.0 mi Calm Calm - N/A   Clear
10:53 PM 60.1 °F 55.0 °F 83% 30.01 in 10.0 mi Calm Calm - N/A   Clear
11:53 PM 57.9 °F 54.0 °F 87% 30.00 in 10.0 mi Calm Calm - N/A   Clear